Wallops Island, VA

3:53 PM EST on February 20, 2017 (GMT -0500)
Wallops Flight Facility

Weather History for KWAL - April, 2013

Change the Weather History Date:

Thursday, April 11, 2013

  Actual Average Record
Temperature  
Mean Temperature 69 °F 53 °F  
Max Temperature 79 °F 62 °F 79 °F (2013)
Min Temperature 59 °F 44 °F 31 °F (1989)
Degree Days  
Heating Degree Days 0    
Month to date heating degree days 133  
Since 1 July heating degree days 3509  
Cooling Degree Days 4    
Month to date cooling degree days 18  
Year to date cooling degree days 18  
Growing Degree Days 19 (Base 50)    
Moisture  
Dew Point 55 °F    
Average Humidity 63    
Maximum Humidity 78    
Minimum Humidity 47    
Precipitation  
Precipitation 0.00 in 0.12 in 1.96 in (2004)
Month to date precipitation 0.88 1.27  
Year to date precipitation 13.79 11.07  
Sea Level Pressure  
Sea Level Pressure 29.86 in    
Wind  
Wind Speed 13 mph (SW)    
Max Wind Speed 22 mph    
Max Gust Speed 28 mph    
Visibility 10 miles    
Events      
T = Trace of Precipitation, MM = Missing Value Source: NWS Daily Summary

Daily Weather History Graph

Daily Weather History Graph

Search for Another Location

Airport or City:

Trip Planner

Search our weather history database for the weather conditions in past years. The results will help you decide how hot, cold, wet, or windy it might be!

Date:

Astronomy

Apr. 11, 2013 Rise Set
Actual Time 6:31 AM EDT 7:34 PM EDT
Civil Twilight 6:05 AM EDT 8:01 PM EDT
Nautical Twilight 5:33 AM EDT 8:33 PM EDT
Astronomical Twilight 4:59 AM EDT 9:06 PM EDT
Moon 7:03 AM EDT (4/11) 9:04 PM EDT (4/11)
Length of Visible Light 13h 56m
Length of Day
13h 02m
New Moon, 2% of the Moon is Illuminated
Apr 11
New Moon
Apr 18
First Quarter
Apr 25
Full
May 2
Last Quarter
May 9
New

Hourly Weather History & Observations

Time (EDT) Temp. Dew Point Humidity Pressure Visibility Wind Dir Wind Speed Gust Speed Precip Events Conditions
12:54 AM 60.1 °F 52.0 °F 75% 29.87 in 10.0 mi SSW 6.9 mph - N/A   Clear
1:54 AM 62.1 °F 54.0 °F 75% 29.85 in 10.0 mi SSW 9.2 mph - N/A   Clear
2:54 AM 73.9 °F 55.9 °F 53% 29.82 in 10.0 mi WSW 12.7 mph 21.9 mph N/A   Clear
3:54 AM 70.0 °F 55.9 °F 61% 29.88 in 10.0 mi NNW 12.7 mph 21.9 mph N/A   Clear
4:54 AM 64.0 °F 54.0 °F 70% 29.87 in 10.0 mi SW 10.4 mph - N/A   Clear
5:54 AM 63.0 °F 54.0 °F 72% 29.86 in 10.0 mi SSW 8.1 mph - N/A   Clear
6:54 AM 64.0 °F 55.0 °F 73% 29.87 in 10.0 mi SW 11.5 mph - N/A   Clear
7:54 AM 70.0 °F 57.0 °F 63% 29.89 in 10.0 mi WSW 11.5 mph - N/A   Mostly Cloudy
8:54 AM 73.9 °F 55.9 °F 53% 29.90 in 10.0 mi WSW 10.4 mph - N/A   Mostly Cloudy
9:54 AM 75.9 °F 55.9 °F 50% 29.91 in 10.0 mi West 16.1 mph 23.0 mph N/A   Mostly Cloudy
10:54 AM 77.0 °F 55.9 °F 48% 29.91 in 10.0 mi West 12.7 mph 19.6 mph N/A   Clear
11:54 AM 77.0 °F 57.9 °F 52% 29.90 in 10.0 mi SSW 8.1 mph - N/A   Clear
12:54 PM 78.8 °F 59.0 °F 51% 29.89 in 10.0 mi SSW 15.0 mph - N/A   Clear
1:54 PM 78.1 °F 59.0 °F 52% 29.86 in 10.0 mi SSW 17.3 mph - N/A   Clear
2:54 PM 75.0 °F 57.9 °F 55% 29.85 in 10.0 mi SSW 18.4 mph - N/A   Clear
3:54 PM 73.9 °F 57.0 °F 55% 29.83 in 10.0 mi SSW 17.3 mph - N/A   Clear
4:54 PM 71.1 °F 55.0 °F 57% 29.83 in 10.0 mi SSW 13.8 mph - N/A   Clear
5:54 PM 66.0 °F 53.1 °F 63% 29.83 in 10.0 mi SSW 12.7 mph - N/A   Clear
6:54 PM 64.0 °F 53.1 °F 67% 29.83 in 10.0 mi SW 12.7 mph - N/A   Clear
7:54 PM 62.1 °F 52.0 °F 70% 29.83 in 10.0 mi SW 11.5 mph - N/A   Clear
8:54 PM 62.1 °F 53.1 °F 72% 29.83 in 10.0 mi SW 15.0 mph - N/A   Clear
9:54 PM 62.1 °F 53.1 °F 72% 29.83 in 10.0 mi SSW 12.7 mph - N/A   Clear
10:54 PM 61.0 °F 53.1 °F 75% 29.83 in 10.0 mi SSW 10.4 mph - N/A   Clear
11:54 PM 62.1 °F 54.0 °F 75% 29.82 in 10.0 mi SSW 15.0 mph - N/A   Clear